Location: Piotrkow Trybunalski
(51.4000°N, 19.6830°E)
Time: 14:01:27
(UTC+02:00)

Explorer 7 - Pass Details

Date: 01 February 2023
Orbit: 478 x 656 km, 50.3° (Epoch: 01 April)

Event Time Altitude Azimuth Distance (km) Brightness Sun altitude
Rises 17:20:20 0° 283° (WNW) 2,870 11.6 -8.0°
Reaches altitude 10° 17:22:40 10° 276° (W) 1,991 10.9 -8.4°
Maximum altitude 17:27:00 41° 206° (SSW) 923 8.4 -9.0°
Drops below altitude 10° 17:31:28 10° 137° (SE) 2,057 9.5 -9.7°
Sets 17:33:55 0° 130° (SE) 2,977 10.2 -10.1°
